Location: Asheville, NC
(35.6000°N, 82.5500°W)
Time: 14:11:01
(UTC-04:00)

UWE-3 - Pass Details

Date: 04 January 2018
Orbit: 586 x 684 km, 97.6° (Epoch: 24 April)

Event Time Altitude Azimuth Distance (km) Brightness Sun altitude
Rises 19:37:10 0° 173° (S) 2,803 ? -25.1°
Reaches altitude 10° 19:39:18 10° 176° (S) 1,913 ? -25.5°
Enters shadow 19:41:47 35° 187° (S) 969 ? -26.0°
Exits shadow 19:47:06 14° 341° (NNW) 1,734 ? -27.1°
Drops below altitude 10° 19:47:41 10° 343° (NNW) 1,971 ? -27.2°
Sets 19:49:55 0° 346° (NNW) 2,896 ? -27.6°
